Weather History for KEVV - November, 2011

Change the Weather History Date:

Sunday, November 20, 2011

  Actual Average Record
Temperature  
Mean Temperature 55 °F 44 °F  
Max Temperature 61 °F 54 °F 75 °F (1913)
Min Temperature 48 °F 35 °F 12 °F (1914)
Degree Days  
Heating Degree Days 10 21  
Month to date heating degree days 257 330  
Since 1 July heating degree days 555 633  
Cooling Degree Days 0 0  
Month to date cooling degree days 3 0  
Year to date cooling degree days 1646 1395  
Growing Degree Days 4 (Base 50)    
Moisture  
Dew Point 51 °F    
Average Humidity 84    
Maximum Humidity 93    
Minimum Humidity 75    
Precipitation  
Precipitation 0.42 in 0.16 in 2.27 in (1900)
Month to date precipitation 4.06 2.82  
Year to date precipitation 59.73 40.04  
Snow  
Snow 0.00 in 0.00 in 0.20 in (1964)
Month to date snowfall 0.0 0.0  
Since 1 July snowfall 0.0 0.2  
Since 1 September snowfall 0.0 0.2  
Snow Depth 0.00 in    
Sea Level Pressure  
Sea Level Pressure 30.14 in    
Wind  
Wind Speed 5 mph (NW)    
Max Wind Speed 14 mph    
Max Gust Speed 17 mph    
Visibility 5 miles    
Events Rain    
T = Trace of Precipitation, MM = Missing Value Source: NWS Daily Summary

Daily Weather History Graph

Daily Weather History Graph

Search for Another Location

Airport or City:

Trip Planner

Search our weather history database for the weather conditions in past years. The results will help you decide how hot, cold, wet, or windy it might be!

Date:

Astronomy

Nov. 20, 2011 Rise Set
Actual Time 6:35 AM CST 4:35 PM CST
Civil Twilight 6:07 AM CST 5:03 PM CST
Nautical Twilight 5:35 AM CST 5:35 PM CST
Astronomical Twilight 5:04 AM CST 6:06 PM CST
Moon 1:08 AM CST (11/20) 1:19 PM CST (11/20)
Length of Visible Light 10h 55m
Length of Day
9h 59m
Waning Crescent, 27% of the Moon is Illuminated
Nov 20
Waning Crescent
Nov 25
New
Dec 2
First Quarter
Dec 10
Full
Dec 17
Last Quarter

Hourly Weather History & Observations

Time (CST) Temp. Dew Point Humidity Pressure Visibility Wind Dir Wind Speed Gust Speed Precip Events Conditions
12:54 AM 57.9 °F 52.0 °F 81% 30.09 in 10.0 mi South 4.6 mph - 0.03 in   Overcast
1:54 AM 59.0 °F 52.0 °F 78% 30.08 in 10.0 mi South 9.2 mph - 0.00 in   Overcast
2:54 AM 59.0 °F 52.0 °F 78% 30.08 in 10.0 mi SSW 6.9 mph - N/A   Mostly Cloudy
3:54 AM 55.9 °F 52.0 °F 87% 30.09 in 10.0 mi Calm Calm - N/A   Overcast
4:54 AM 57.9 °F 52.0 °F 81% 30.10 in 10.0 mi SSW 5.8 mph - N/A   Overcast
5:54 AM 60.8 °F 53.6 °F 77% 30.11 in 10.0 mi South 8.1 mph - N/A   Scattered Clouds
6:43 AM 60.8 °F 55.4 °F 82% 30.12 in 10.0 mi SSW 6.9 mph - N/A   Mostly Cloudy
6:54 AM 60.8 °F 55.4 °F 82% 30.11 in 10.0 mi South 4.6 mph - N/A   Overcast
7:36 AM 60.8 °F 55.4 °F 82% 30.14 in 10.0 mi SSW 8.1 mph - N/A   Overcast
7:54 AM 60.1 °F 55.9 °F 86% 30.14 in 10.0 mi SSW 5.8 mph - N/A   Overcast
8:08 AM 60.8 °F 55.4 °F 82% 30.14 in 10.0 mi SSW 5.8 mph - N/A   Overcast
8:54 AM 61.0 °F 55.9 °F 83% 30.15 in 10.0 mi SSW 5.8 mph - N/A   Overcast
9:54 AM 61.0 °F 55.9 °F 83% 30.16 in 10.0 mi SSW 9.2 mph - N/A   Overcast
10:07 AM 60.8 °F 55.4 °F 82% 30.17 in 10.0 mi SSW 8.1 mph - 0.00 in Rain Light Rain
10:54 AM 60.1 °F 57.0 °F 90% 30.15 in 7.0 mi SSW 5.8 mph - 0.01 in Rain Light Rain
11:54 AM 60.1 °F 57.0 °F 90% 30.13 in 5.0 mi SW 5.8 mph - 0.02 in Rain Light Rain
12:40 PM 60.8 °F 57.2 °F 88% 30.12 in 2.0 mi SW 4.6 mph - 0.00 in Rain Light Rain
12:49 PM 60.8 °F 57.2 °F 88% 30.12 in 1.8 mi WSW 3.5 mph - 0.03 in Rain Rain
12:54 PM 60.1 °F 57.9 °F 93% 30.12 in 3.0 mi Calm Calm - 0.04 in Rain Light Rain
1:24 PM 57.2 °F 55.4 °F 94% 30.12 in 2.5 mi NNW 8.1 mph - 0.00 in Rain Light Rain
1:34 PM 57.2 °F 55.4 °F 94% 30.11 in 1.0 mi North 4.6 mph - N/A Rain Light Rain
1:54 PM 57.0 °F 55.0 °F 93% 30.12 in 1.0 mi Calm Calm - 0.04 in Rain Heavy Rain
1:56 PM 57.2 °F 55.4 °F 94% 30.12 in 0.8 mi Calm Calm - N/A Rain Heavy Rain
2:03 PM 57.2 °F 55.4 °F 94% 30.12 in 0.8 mi Calm Calm - 0.11 in Rain Heavy Rain
2:09 PM 57.2 °F 55.4 °F 94% 30.12 in 1.5 mi Calm Calm - 0.15 in Rain Heavy Rain
2:15 PM 57.2 °F 55.4 °F 94% 30.12 in 3.0 mi Calm Calm - 0.16 in Rain Rain
2:25 PM 57.2 °F 55.4 °F 94% 30.12 in 1.5 mi Calm Calm - 0.18 in Rain Rain
2:42 PM 53.6 °F 51.8 °F 94% 30.12 in 1.5 mi NNW 11.5 mph - 0.19 in Rain Light Rain
2:51 PM 53.6 °F 50.0 °F 88% 30.13 in 2.5 mi North 6.9 mph - N/A   Overcast
2:54 PM 52.0 °F 48.9 °F 89% 30.13 in 2.5 mi NNW 8.1 mph - 0.19 in   Overcast
3:01 PM 51.8 °F 48.2 °F 88% 30.13 in 2.5 mi NNW 8.1 mph - N/A   Overcast
3:54 PM 48.9 °F 46.9 °F 93% 30.15 in 1.8 mi Variable 4.6 mph - 0.06 in Rain Heavy Rain
4:02 PM 48.2 °F 46.4 °F 93% 30.15 in 2.5 mi North 6.9 mph - 0.02 in Rain Rain
4:10 PM 48.2 °F 46.4 °F 93% 30.16 in 5.0 mi North 5.8 mph - 0.03 in Rain Light Rain
4:21 PM 48.2 °F 46.4 °F 93% 30.16 in 6.0 mi NNW 4.6 mph - 0.03 in Rain Light Rain
4:28 PM 48.2 °F 46.4 °F 93% 30.16 in 2.5 mi North 6.9 mph - 0.03 in Rain Light Rain
4:40 PM 48.2 °F 46.4 °F 93% 30.17 in 1.5 mi North 5.8 mph - 0.04 in Rain Light Rain
4:54 PM 48.9 °F 46.9 °F 93% 30.17 in 1.5 mi NE 4.6 mph - 0.04 in Rain Light Rain
5:13 PM 48.2 °F 46.4 °F 93% 30.16 in 1.5 mi NE 4.6 mph - 0.01 in Rain Light Rain
5:32 PM 48.2 °F 46.4 °F 93% 30.18 in 1.5 mi NNW 5.8 mph - 0.01 in   Overcast
5:54 PM 50.0 °F 46.4 °F 87% 30.18 in 1.5 mi North 3.5 mph - N/A   Overcast
6:01 PM 48.2 °F 46.4 °F 93% 30.19 in 1.5 mi NW 4.6 mph - N/A   Overcast
6:11 PM 48.2 °F 46.4 °F 93% 30.19 in 3.0 mi North 4.6 mph - 0.00 in Rain Light Rain
6:54 PM 48.9 °F 46.0 °F 90% 30.20 in 3.0 mi NNW 4.6 mph - 0.00 in Rain Light Rain
7:54 PM 48.0 °F 46.0 °F 93% 30.20 in 4.0 mi North 3.5 mph - 0.00 in   Overcast
8:54 PM 48.9 °F 46.0 °F 90% 30.19 in 4.0 mi North 4.6 mph - N/A   Overcast
9:37 PM 48.2 °F 46.4 °F 93% 30.18 in 3.0 mi ENE 3.5 mph - N/A   Overcast
9:51 PM 48.2 °F 46.4 °F 93% 30.18 in 2.5 mi NE 5.8 mph - N/A   Overcast
9:54 PM 48.9 °F 46.0 °F 90% 30.18 in 2.5 mi NNE 4.6 mph - N/A   Overcast
10:54 PM 50.0 °F 46.9 °F 89% 30.18 in 2.5 mi Calm Calm - 0.00 in Rain Light Rain
11:54 PM 50.0 °F 48.0 °F 93% 30.17 in 2.5 mi Calm Calm - 0.00 in   Overcast